[[{"header":{"parameterUnit":"m.s-1","parameterCategory":1,"la1":30.2991,"la2":30.254,"lo1":-89.0895,"lo2":-89.0444,"dy":0.0017,"dx":0.0017,"nx":28,"ny":28,"refTime":"2024-08-26T03:00:00:Z","depth":0,"parameterNumber":2,"parameterNumberName":"U-component_of_WINDS"},"data":[0,0,0,0,0,0,0,0,0,0,0,0,0,0,0,0,0,0,0,0,0,0,0,0,0,0,0,0,0,0,0,0,0,0,0,0,0,0,0,0,0,0,0,0,0,0,0,0,0,0,0,0,0,0,0,0,0,0,-3.5978,-3.5978,0,-3.596,-3.5959,-3.5959,-3.5881,-3.5879,-3.5877,-3.5875,-3.5859,-3.5861,-3.5862,0,0,0,0,0,0,0,0,0,0,0,0,0,-3.5951,-3.5952,-3.5978,-3.5978,-3.5978,-3.596,-3.5959,-3.5959,-3.5881,-3.5879,-3.5876,-3.5874,-3.5859,-3.5861,-3.5862,0,0,0,0,0,0,0,0,0,0,0,0,0,-3.5951,-3.5952,-3.5978,-3.5937,-3.5933,-3.596,-3.5959,-3.5959,-3.5881,-3.5879,-3.5876,-3.5873,-3.5858,-3.586,-3.5862,-3.5929,0,0,-3.5868,-3.5869,0,0,0,0,0,0,0,0,-3.5951,-3.5952,-3.5943,-3.594,-3.5935,-3.5919,-3.5944,-3.5949,-3.5882,-3.5901,-3.5875,-3.5872,-3.5882,-3.5882,-3.5884,-3.5929,-3.5928,-3.5868,-3.587,-3.587,-3.5871,0,0,0,0,0,0,0,-3.5951,-3.5952,-3.5971,-3.5943,-3.5938,-3.592,-3.5917,-3.5945,-3.5907,-3.5899,-3.5893,-3.5892,-3.5879,-3.5883,-3.5883,-3.5928,-3.5868,-3.587,-3.5871,-3.5872,-3.603,-3.6033,0,0,0,0,0,0,-3.5956,-3.5953,-3.5972,-3.597,-3.5936,-3.5923,-3.592,-3.5927,-3.5907,-3.5901,-3.5894,-3.5888,-3.5881,-3.5881,-3.5883,-3.5962,-3.587,-3.5872,-3.5873,-3.6027,-3.603,-3.6034,0,0,0,0,0,0,-3.5956,-3.5959,-3.5972,-3.596,-3.596,-3.5926,-3.5936,-3.5928,-3.5932,-3.5903,-3.5896,-3.5904,-3.5879,-3.588,-3.5919,-3.5961,-3.5873,-3.5875,-3.6023,-3.6028,-3.6032,-3.6121,0,0,0,0,0,0,-3.5956,-3.5959,-3.5983,-3.5961,-3.5961,-3.6008,-3.5938,-3.593,-3.5935,-3.5927,-3.5911,-3.5905,-3.5876,-3.5916,-3.5921,-3.5962,-3.5876,-3.6019,-3.6025,-3.6031,-3.6114,-3.6128,-3.614,0,0,0,0,0,-3.5955,-3.6009,-3.5985,-3.5987,-3.599,-3.601,-3.6011,-3.5975,-3.5938,-3.5963,-3.5945,-3.5906,-3.5955,-3.5921,-3.5925,-3.5968,-3.6017,-3.6024,-3.603,-3.6109,-3.6125,-3.614,0,0,0,0,0,0,-3.6037,-3.6005,-3.5978,-3.6026,-3.6022,-3.5997,-3.6027,-3.5994,-3.6,-3.5993,-3.5949,-3.5946,-3.5993,-3.5983,-3.5946,-3.6033,-3.5979,-3.5987,-3.6038,-3.6053,-3.6066,-3.6068,-3.5878,0,0,0,0,0,-3.6061,-3.6079,-3.605,-3.6095,-3.6094,-3.6061,-3.6069,-3.6042,-3.6036,-3.6034,-3.6018,-3.6015,-3.603,-3.6041,-3.6052,-3.6112,-3.6109,-3.6144,-3.6156,-3.6167,-3.6175,-3.621,-3.6225,-3.6056,-3.6056,-3.6056,0,0,-3.611,-3.6095,-3.6109,-3.6112,-3.6105,-3.6126,-3.606,-3.6085,-3.6101,-3.6038,-3.6074,-3.6063,-3.6057,-3.6107,-3.6129,-3.6101,-3.6221,-3.6176,-3.6184,-3.6187,-3.6218,-3.6234,-3.6249,-3.6061,-3.606,-3.6059,0,0,-3.6211,-3.62,-3.6238,-3.6233,-3.6224,-3.6202,-3.6211,-3.6192,-3.6182,-3.6217,-3.6172,-3.6191,-3.6216,-3.6215,-3.6217,-3.632,-3.6286,-3.6325,-3.6393,-3.6427,-3.6441,-3.6452,-3.6492,-3.6507,-3.6333,-3.6333,-3.6333,0,-3.6274,-3.6303,-3.6262,-3.6291,-3.6295,-3.6238,-3.6278,-3.6275,-3.627,-3.6275,-3.6244,-3.6277,-3.6268,-3.6319,-3.6345,-3.6348,-3.6359,-3.6328,-3.6442,-3.6453,-3.6463,-3.6501,-3.6516,-3.6338,-3.6338,-3.6337,-3.6337,0,-3.6382,-3.6403,-3.6435,-3.6432,-3.6439,-3.6473,-3.644,-3.6452,-3.6425,-3.6408,-3.6447,-3.6434,-3.6444,-3.6454,-3.6428,-3.6503,-3.6486,-3.6449,-3.6394,-3.6485,-3.652,-3.6534,-3.6346,-3.6344,-3.6342,-3.6341,0,0,-3.6535,-3.651,-3.6523,-3.6522,-3.6508,-3.6524,-3.6557,-3.6566,-3.6579,-3.6578,-3.6606,-3.663,-3.6596,-3.66,-3.6573,-3.6602,-3.6689,-3.6562,-3.6561,-3.6589,-3.6775,-3.6805,-3.6822,-3.6665,-3.6667,-3.6669,-3.6776,0,-3.6634,-3.6687,-3.6652,-3.6712,-3.6732,-3.668,-3.6708,-3.6704,-3.6689,-3.6705,-3.6688,-3.6707,-3.666,-3.6662,-3.6688,-3.6673,-3.6726,-3.6664,-3.6694,-3.6695,-3.67,-3.6839,-3.6871,-3.6972,-3.6789,-3.6791,-3.6793,0,-3.6756,-3.6761,-3.6823,-3.6807,-3.6815,-3.6841,-3.6848,-3.6863,-3.6859,-3.6846,-3.685,-3.6817,-3.685,-3.6795,-3.6842,-3.6801,-3.6811,-3.6805,-3.6808,-3.6812,-3.6752,-3.685,-3.7003,-3.702,-3.6813,-3.6812,-3.681,0,-3.6866,-3.6887,-3.6927,-3.6928,-3.691,-3.693,-3.6924,-3.6916,-3.6925,-3.6932,-3.6937,-3.6948,-3.6955,-3.6965,-3.6936,-3.6898,-3.6989,-3.693,-3.6981,-3.6983,-3.7005,-3.7004,-3.7165,-3.7007,-3.7006,-3.7006,-3.7006,0,-3.6981,-3.7022,-3.6977,-3.7002,-3.7047,-3.7007,-3.7053,-3.7041,-3.7036,-3.7059,-3.7014,-3.7038,-3.6997,-3.7018,-3.6995,-3.704,-3.7042,-3.7035,-3.7029,-3.7041,-3.7042,-3.7048,-3.7042,-3.701,-3.7009,-3.7008,-3.7008,0,-3.7112,-3.7082,-3.7124,-3.7103,-3.71,-3.7134,-3.7118,-3.7141,-3.7123,-3.7154,-3.7159,-3.7131,-3.7153,-3.7125,-3.7144,-3.7129,-3.7191,-3.7173,-3.7193,-3.7189,-3.7243,-3.7239,-3.7415,-3.7438,-3.7263,-3.7264,-3.7266,0,-3.7189,-3.7219,-3.7202,-3.7214,-3.7211,-3.7231,-3.7239,-3.7202,-3.7213,-3.7212,-3.7237,-3.7254,-3.7267,-3.7305,-3.7288,-3.7303,-3.7287,-3.7348,-3.7289,-3.7301,-3.7292,-3.7292,-3.7296,-3.7361,-3.7363,-3.7365,-3.7366,0,-3.7329,-3.7314,-3.7327,-3.7337,-3.7349,-3.7354,-3.7357,-3.737,-3.7331,-3.7347,-3.7368,-3.7378,-3.7398,-3.7418,-3.7429,-3.7425,-3.7391,-3.7384,-3.7398,-3.7411,-3.7422,-3.742,-3.7229,-3.7381,-3.7379,-3.7378,-3.7377,-3.7377,-3.7437,-3.7463,-3.7456,-3.7473,-3.7471,-3.7475,-3.7497,-3.7482,-3.7499,-3.7512,-3.7489,-3.7517,-3.7515,-3.7526,-3.7526,-3.7549,-3.7523,-3.7542,-3.7547,-3.7553,-3.7562,-3.7417,-3.7551,-3.755,-3.755,-3.7549,-3.7549,0,-3.7579,-3.7571,-3.7588,-3.7593,-3.7608,-3.7572,-3.7574,-3.7589,-3.7614,-3.7614,-3.7627,-3.7654,-3.7674,-3.7658,-3.7675,-3.7697,-3.7682,-3.7703,-3.7702,-3.7703,-3.7583,-3.7571,-3.7715,-3.7715,-3.7715,-3.7715,-3.7715,-3.7715,-3.7654,-3.7696,-3.768,-3.7722,-3.7715,-3.7741,-3.7746,-3.7751,-3.7751,-3.7782,-3.7798,-3.7787,-3.7782,-3.7798,-3.7816,-3.7811,-3.7821,-3.7848,-3.7838,-3.7727,-3.7711,-3.7695,-3.7684,-3.7849,-3.785,-3.7956,-3.7957,-3.7958]},{"header":{"parameterUnit":"m.s-1","parameterCategory":1,"la1":30.2991,"la2":30.254,"lo1":-89.0895,"lo2":-89.0444,"dy":0.0017,"dx":0.0017,"nx":28,"ny":28,"refTime":"2024-08-26T03:00:00:Z","depth":0,"parameterNumber":3,"parameterNumberName":"V-component_of_WINDS"},"data":[0,0,0,0,0,0,0,0,0,0,0,0,0,0,0,0,0,0,0,0,0,0,0,0,0,0,0,0,0,0,0,0,0,0,0,0,0,0,0,0,0,0,0,0,0,0,0,0,0,0,0,0,0,0,0,0,0,0,-0.3055,-0.3055,0,-0.3087,-0.3087,-0.3088,-0.3112,-0.3113,-0.3113,-0.3113,-0.3146,-0.3146,-0.3147,0,0,0,0,0,0,0,0,0,0,0,0,0,-0.3016,-0.3016,-0.3055,-0.3055,-0.3056,-0.3087,-0.3087,-0.3088,-0.3112,-0.3113,-0.3113,-0.3113,-0.3146,-0.3146,-0.3147,0,0,0,0,0,0,0,0,0,0,0,0,0,-0.3039,-0.3016,-0.3055,-0.3072,-0.3074,-0.3087,-0.3087,-0.3088,-0.3112,-0.3113,-0.3113,-0.3113,-0.3145,-0.3146,-0.3147,-0.3146,0,0,-0.315,-0.3151,0,0,0,0,0,0,0,0,-0.3037,-0.304,-0.3069,-0.3071,-0.3073,-0.3096,-0.3086,-0.3107,-0.3112,-0.3098,-0.3113,-0.3114,-0.3129,-0.3131,-0.3137,-0.3148,-0.3149,-0.315,-0.3151,-0.3151,-0.3152,0,0,0,0,0,0,0,-0.3036,-0.3039,-0.3067,-0.3069,-0.3072,-0.3078,-0.3082,-0.309,-0.3111,-0.3099,-0.3101,-0.3104,-0.313,-0.3136,-0.3138,-0.315,-0.315,-0.3151,-0.3152,-0.3152,-0.3164,-0.3164,0,0,0,0,0,0,-0.3031,-0.3037,-0.3066,-0.3068,-0.3055,-0.3078,-0.3082,-0.3088,-0.3111,-0.3115,-0.3104,-0.3105,-0.3134,-0.3136,-0.3139,-0.3141,-0.3151,-0.3152,-0.3153,-0.3164,-0.3164,-0.3164,0,0,0,0,0,0,-0.303,-0.3034,-0.3065,-0.3053,-0.3058,-0.3079,-0.3085,-0.3089,-0.3094,-0.3115,-0.3119,-0.3106,-0.3134,-0.3137,-0.3145,-0.3142,-0.3153,-0.3154,-0.3164,-0.3164,-0.3164,-0.3143,0,0,0,0,0,0,-0.3029,-0.3033,-0.3033,-0.3053,-0.3058,-0.307,-0.3085,-0.3089,-0.3096,-0.3098,-0.3117,-0.3121,-0.3135,-0.3143,-0.3146,-0.3144,-0.3154,-0.3165,-0.3164,-0.3164,-0.3144,-0.3142,-0.314,0,0,0,0,0,-0.3028,-0.3025,-0.3033,-0.3036,-0.3058,-0.307,-0.3073,-0.3089,-0.3095,-0.3095,-0.3109,-0.312,-0.3142,-0.3144,-0.3147,-0.3145,-0.3165,-0.3164,-0.3164,-0.3145,-0.3143,-0.314,0,0,0,0,0,0,-0.3003,-0.3028,-0.3037,-0.3041,-0.3053,-0.3074,-0.3075,-0.3085,-0.3096,-0.3098,-0.3117,-0.3121,-0.3127,-0.3136,-0.3138,-0.3146,-0.3155,-0.3155,-0.314,-0.3137,-0.3136,-0.3133,-0.3155,0,0,0,0,0,-0.2999,-0.3006,-0.3027,-0.3029,-0.3035,-0.3053,-0.3059,-0.307,-0.3084,-0.3089,-0.3103,-0.3116,-0.3126,-0.3132,-0.3142,-0.3146,-0.3151,-0.3146,-0.3144,-0.3142,-0.3142,-0.3147,-0.3145,-0.3161,-0.3162,-0.3162,0,0,-0.2989,-0.3003,-0.3006,-0.3024,-0.3035,-0.3043,-0.3058,-0.3065,-0.3071,-0.309,-0.3099,-0.3109,-0.3125,-0.3131,-0.3134,-0.3139,-0.3139,-0.3142,-0.314,-0.3141,-0.3146,-0.3144,-0.3143,-0.3161,-0.3161,-0.3161,0,0,-0.2975,-0.2986,-0.2989,-0.3,-0.3017,-0.303,-0.303,-0.305,-0.3058,-0.3067,-0.3082,-0.309,-0.3106,-0.3117,-0.3125,-0.3117,-0.3128,-0.3119,-0.3109,-0.3113,-0.3112,-0.3111,-0.3109,-0.3108,-0.3119,-0.3119,-0.3119,0,-0.296,-0.2972,-0.2989,-0.2996,-0.3004,-0.3023,-0.3027,-0.3036,-0.3055,-0.3061,-0.3066,-0.3088,-0.31,-0.3109,-0.3108,-0.3113,-0.3115,-0.3117,-0.3111,-0.311,-0.3109,-0.3108,-0.3107,-0.3118,-0.3118,-0.3118,-0.3118,0,-0.2954,-0.2963,-0.2963,-0.2982,-0.299,-0.2995,-0.3014,-0.302,-0.3031,-0.3043,-0.3052,-0.3067,-0.3082,-0.3085,-0.3095,-0.3096,-0.3099,-0.3107,-0.3117,-0.3106,-0.3106,-0.3105,-0.3116,-0.3117,-0.3117,-0.3117,0,0,-0.2926,-0.2955,-0.2955,-0.2964,-0.2985,-0.2991,-0.2998,-0.3012,-0.3018,-0.303,-0.3037,-0.3051,-0.306,-0.3068,-0.308,-0.3083,-0.3078,-0.3092,-0.3092,-0.309,-0.3082,-0.3076,-0.3075,-0.3085,-0.3085,-0.3085,-0.3081,0,-0.2916,-0.2929,-0.2945,-0.2953,-0.2962,-0.298,-0.2986,-0.2999,-0.3011,-0.3021,-0.3034,-0.3044,-0.3054,-0.3059,-0.3063,-0.3078,-0.3077,-0.3078,-0.3093,-0.3093,-0.3089,-0.3075,-0.3068,-0.3063,-0.3081,-0.3081,-0.308,0,-0.2907,-0.2919,-0.2928,-0.2949,-0.2953,-0.2958,-0.2973,-0.2981,-0.2998,-0.3006,-0.3017,-0.303,-0.3039,-0.3047,-0.306,-0.306,-0.3067,-0.3075,-0.3076,-0.3078,-0.3087,-0.3078,-0.3062,-0.3061,-0.308,-0.308,-0.308,0,-0.2887,-0.2906,-0.2914,-0.2921,-0.2945,-0.2949,-0.2959,-0.2975,-0.2983,-0.2996,-0.3002,-0.3016,-0.3024,-0.3035,-0.3052,-0.3056,-0.3063,-0.3072,-0.3072,-0.3071,-0.3073,-0.3073,-0.3059,-0.3076,-0.3076,-0.3076,-0.3076,0,-0.2875,-0.288,-0.2905,-0.291,-0.2917,-0.2936,-0.2942,-0.2953,-0.2968,-0.2976,-0.2993,-0.3,-0.3021,-0.3032,-0.3045,-0.3054,-0.3057,-0.3065,-0.3069,-0.3064,-0.3064,-0.307,-0.3071,-0.3075,-0.3075,-0.3075,-0.3076,0,-0.2854,-0.2871,-0.2882,-0.2904,-0.291,-0.2914,-0.2933,-0.2939,-0.2952,-0.2962,-0.2966,-0.2987,-0.3,-0.3018,-0.3036,-0.3045,-0.3053,-0.3058,-0.3048,-0.305,-0.3049,-0.3049,-0.3039,-0.3039,-0.3055,-0.3055,-0.3054,0,-0.2846,-0.285,-0.2873,-0.288,-0.289,-0.29,-0.2909,-0.2928,-0.2936,-0.2955,-0.2959,-0.2974,-0.2986,-0.3006,-0.3023,-0.3038,-0.3044,-0.3039,-0.3046,-0.3042,-0.3045,-0.3045,-0.3046,-0.3038,-0.3038,-0.3037,-0.3037,0,-0.283,-0.2839,-0.285,-0.2865,-0.2875,-0.2887,-0.2901,-0.2905,-0.2927,-0.2936,-0.2949,-0.2959,-0.2978,-0.2993,-0.301,-0.3021,-0.3033,-0.3035,-0.3036,-0.3032,-0.3026,-0.303,-0.3044,-0.3035,-0.3035,-0.3036,-0.3036,-0.3036,-0.2816,-0.2822,-0.2839,-0.2852,-0.2864,-0.2876,-0.2883,-0.2898,-0.2909,-0.2927,-0.2937,-0.295,-0.2968,-0.2992,-0.3002,-0.3014,-0.3018,-0.3019,-0.302,-0.302,-0.3019,-0.3023,-0.3017,-0.3017,-0.3017,-0.3017,-0.3017,0,-0.2803,-0.2815,-0.2826,-0.2845,-0.2855,-0.2865,-0.2881,-0.2889,-0.2901,-0.2916,-0.2928,-0.2944,-0.2958,-0.2977,-0.2992,-0.2998,-0.3004,-0.3002,-0.3002,-0.3004,-0.3013,-0.3011,-0.2997,-0.2997,-0.2997,-0.2997,-0.2997,-0.2997,-0.2797,-0.2807,-0.2817,-0.2834,-0.2846,-0.2859,-0.2868,-0.2879,-0.2891,-0.2909,-0.2921,-0.2933,-0.295,-0.2967,-0.2981,-0.2986,-0.2991,-0.2987,-0.2994,-0.3002,-0.3004,-0.3005,-0.3004,-0.2988,-0.2988,-0.2985,-0.2985,-0.2985]}]]